Regional Weather Roundup
Issued by NWS Albany, NY

Home | Current Version | Previous Version | Text Only | Print | Product List | Glossary On
Versions: 1 2 3 4 5 6 7 8 9 10 11 12 13 14 15 16 17 18 19 20 21 22 23 24 25 26 27 28 29 30 31 32 33 34 35 36 37 38 39 40 41 42 43 44 45 46 47 48 49 50
000
ASUS41 KALY 232210
RWRALY

NEW YORK STATE HOURLY WEATHER ROUNDUP
NATIONAL WEATHER SERVICE ALBANY NY
600 PM EDT SAT SEP 23 2017

NOTE: "FAIR" INDICATES FEW OR NO CLOUDS BELOW 12,000 FEET WITH NO
SIGNIFICANT WEATHER AND/OR NO OBSTRUCTIONS TO VISIBILITY.

NYZ032-033-038>043-046>054-057>066-NYZ062>081-082-084-232300-
EAST


CITY           SKY/WX    TMP DP  RH WIND       PRES   REMARKS
ALBANY         PTCLDY    83  55  38 CALM      30.03F
GLENS FALLS    CLEAR     80  65  59 CALM      30.03S
POUGHKEEPSIE   CLEAR     83  52  34 N8        30.01R
MONTGOMERY     CLEAR     81  61  50 CALM      30.03R
WHITE PLAINS   CLEAR     82  54  37 N6        30.02R
ISLIP          PTCLDY    83  61  47 NW7       29.99R
NEW YORK CITY  PTCLDY    85  52  32 N9        29.99S
CENTRAL PARK   CLEAR     84  48  28 NE7       30.03S
$$

NYZ005>009-017-018-044>046-055-056-232300-
CENTRAL


CITY           SKY/WX    TMP DP  RH WIND       PRES   REMARKS
FULTON         SUNNY     79  58  48 W7        30.08S
SYRACUSE       PTCLDY    81  59  47 NW8       30.07R
ROME           CLEAR     80  61  52 W8        30.07S
ELMIRA         SUNNY     84  64  50 NE6       30.09S
BINGHAMTON     SUNNY     79  59  50 N9        30.12S
MONTICELLO     CLEAR     80  59  48 N7        30.10R
$$

NYZ026>034-041>043-087-232300-
NORTH


CITY           SKY/WX    TMP DP  RH WIND       PRES   REMARKS
WATERTOWN      CLEAR     76  57  51 SW6       30.06F
FORT DRUM      NOT AVBL
OGDENSBURG     FAIR      82  64  54 SW7       30.03S
MASSENA        PTCLDY    82  69  64 SW7       30.02S
SARANAC LAKE   CLEAR     79  63  57 VRB6      30.09R
PLATTSBURGH    CLEAR     76  60  57 CALM      30.02R
$$

NYZ001>004-010>016-019>021-085-232300-
WEST


CITY           SKY/WX    TMP DP  RH WIND       PRES   REMARKS
NIAGARA FALLS  SUNNY     84  64  50 S7        30.09R
BUFFALO        MOSUNNY   80  58  46 SW9       30.11R
DUNKIRK        SUNNY     81  60  48 SW3       30.11F
JAMESTOWN      SUNNY     79  64  60 N7        30.17F
WELLSVILLE     SUNNY     80  61  52 NW6       30.19S
ROCHESTER      MOSUNNY   86  66  51 W6        30.08S
PENN YAN       SUNNY     83  61  47 NW3       30.11S
$$

             KEY
       WCI = WIND CHILL INDEX
       VSB = VISIBILITY
       HX  = HEAT INDEX
$$



USA.gov is the U.S. government's official web portal to all federal, state and local government web resources and services.